Location: Prairie State College
(41.5244°N, 87.6382°W)
Time: 12:26:18
(UTC-06:00)

Amateur Radio Satellites - All Passes

Search period start: 24 November 2017 11:56
Search period end: 25 November 2017 11:56
Location: Prairie State College, 41.5244°N, 87.6382°W

Satellite Date Start Highest point End Downlink Frequencies (MHz)
Time Altitude Azimuth
EO-79 24 Nov 11:57:29 12:00:45 21° 266° (W) 12:04:02 145.935-145.965
NANOSAT C BR1 24 Nov 11:58:03 12:01:28 23° 265° (W) 12:04:53 145.865
AO-91 24 Nov 12:03:20 12:08:26 45° 71° (ENE) 12:13:31 145.960
AO-85 24 Nov 12:10:19 12:15:03 73° 240° (WSW) 12:20:06 145.980
Oscar 19 24 Nov 12:11:31 12:16:30 56° 71° (ENE) 12:21:30 437.125/150
POLYITAN 1 24 Nov 12:14:57 12:17:17 14° 268° (W) 12:19:36 437.675
BUGSAT 1 24 Nov 12:22:26 12:26:34 58° 260° (W) 12:30:41 437.445
NO-84 24 Nov 12:26:22 12:27:46 12° 122° (ESE) 12:29:14 435.350 FM
BEESAT 2 24 Nov 12:30:01 12:32:24 15° 250° (WSW) 12:34:47 435.950
50 SAT 24 Nov 12:37:20 12:38:57 13° 93° (E) 12:40:32 437.505
O/OREOS (USA 219) 24 Nov 12:45:50 12:50:26 69° 294° (WNW) 12:55:02 437.305
ESTCUBE 1 24 Nov 12:54:37 12:56:51 14° 298° (WNW) 12:59:04 437.505/2401.250
VELOX 1 24 Nov 12:56:53 13:01:19 68° 286° (WNW) 13:05:43 145.980
AO-7 24 Nov 13:01:16 13:08:17 32° 57° (ENE) 13:15:18 .
Gurwin Techsat 1B 24 Nov 13:05:48 13:11:05 66° 258° (WSW) 13:16:24 435.225
M-CUBED/EXP-1 PRIME 24 Nov 13:08:27 13:11:53 40° 66° (ENE) 13:15:37 437.505
SPROUT 24 Nov 13:26:44 13:29:50 20° 294° (WNW) 13:32:56 437.525
DX 1 24 Nov 13:30:34 13:34:55 61° 101° (ESE) 13:39:13 434.975-435.025
AO-91 24 Nov 13:40:37 13:44:58 25° 267° (W) 13:49:20 145.960
Oscar 19 24 Nov 13:52:48 13:56:09 17° 268° (W) 13:59:31 437.125/150
NO-84 24 Nov 14:00:54 14:04:28 74° 320° (NW) 14:08:23 435.350 FM
UKube-1 24 Nov 14:04:42 14:09:03 90° 331° (NNW) 14:13:22 .
50 SAT 24 Nov 14:08:16 14:11:04 28° 289° (WNW) 14:13:51 437.505
ITAMSAT 1 24 Nov 14:12:03 14:17:01 46° 70° (ENE) 14:22:01 435.822/435.867
MOZHAYETS 4 24 Nov 14:38:21 14:42:38 38° 98° (E) 14:46:54
M-CUBED/EXP-1 PRIME 24 Nov 14:44:32 14:46:33 14° 264° (W) 14:48:39 437.505
BEESAT 24 Nov 14:49:16 14:53:40 36° 98° (E) 14:58:02 436.000
AO-7 24 Nov 14:52:22 15:00:32 62° 256° (WSW) 15:08:47 .
DOVE 4 24 Nov 14:57:30 15:01:23 22° 64° (ENE) 15:05:23 437.250
YUBILEINY 24 Nov 14:59:48 15:07:38 33° 70° (ENE) 15:15:22 435.215
CUBESAT XI-V 24 Nov 15:00:56 15:03:50 16° 91° (E) 15:06:43 437.345
ITUPSAT 1 24 Nov 15:01:26 15:06:02 47° 100° (E) 15:10:37 437.325
DX 1 24 Nov 15:08:25 15:10:34 14° 298° (WNW) 15:12:43 434.975-435.025
NO-84 24 Nov 15:39:42 15:42:25 18° 340° (NNW) 15:45:16 435.350 FM
ITAMSAT 1 24 Nov 15:52:39 15:56:40 22° 266° (W) 16:00:43 435.822/435.867
XW-2C 24 Nov 15:53:43 15:54:32 11° 64° (ENE) 15:55:20 145.795 - 145.815
LilacSat-2 24 Nov 15:59:21 16:01:16 14° 65° (ENE) 16:03:12 437.200
XW-2F 24 Nov 16:00:10 16:01:32 12° 64° (ENE) 16:02:55 145.980 - 146.000
KKS-1 24 Nov 16:03:58 16:06:30 15° 92° (E) 16:09:01 437.445
CUTE-I 24 Nov 16:12:17 16:16:25 23° 64° (ENE) 16:20:34 437.470
MOZHAYETS 4 24 Nov 16:16:04 16:19:32 22° 294° (WNW) 16:22:59
KAITUO 1B 24 Nov 16:20:18 16:22:33 16° 66° (ENE) 16:24:49 145.475/437.950
BEESAT 24 Nov 16:27:26 16:31:14 24° 294° (WNW) 16:35:02 436.000
DOVE 4 24 Nov 16:33:44 16:38:40 49° 262° (W) 16:43:47 437.250
CUBESAT XI-V 24 Nov 16:36:55 16:41:29 52° 287° (WNW) 16:46:03 437.345
ITUPSAT 1 24 Nov 16:40:09 16:43:30 19° 296° (WNW) 16:46:50 437.325
HO-68 24 Nov 16:41:07 16:46:52 27° 59° (ENE) 16:52:37 435.675
XW-2D 24 Nov 16:43:49 16:47:21 43° 73° (ENE) 16:50:56 145.860 - 145.880
YUBILEINY 24 Nov 16:56:14 17:04:48 56° 270° (W) 17:13:18 435.215
NUDT-PHONESAT 24 Nov 16:56:44 17:00:08 39° 73° (ENE) 17:03:35 437.300
XW-2B 24 Nov 16:58:37 17:02:18 64° 76° (ENE) 17:06:02 145.730 - 145.750
NO-84 24 Nov 17:19:26 17:21:08 12° 2° (N) 17:22:51 435.350 FM
CUTE 1.7 + AOD 2 24 Nov 17:20:00 17:23:32 27° 69° (ENE) 17:27:05 437.475
RS-15 24 Nov 17:20:00 17:31:48 56° 112° (ESE) 17:43:35 29.354- 29.394
CUBEBUG 2 24 Nov 17:21:11 17:24:16 18° 66° (ENE) 17:27:18 437.445
XW-2C 24 Nov 17:24:32 17:28:12 56° 260° (W) 17:31:54 145.795 - 145.815
XW-2F 24 Nov 17:31:35 17:35:11 49° 260° (W) 17:38:49 145.980 - 146.000
LilacSat-2 24 Nov 17:31:36 17:35:10 42° 261° (W) 17:38:46 437.200
KKS-1 24 Nov 17:39:00 17:43:21 51° 288° (WNW) 17:47:38 437.445
AAUSAT CUBESAT 2 24 Nov 17:39:43 17:41:17 12° 63° (ENE) 17:42:52 437.432
SEEDS 24 Nov 17:42:41 17:46:16 29° 70° (ENE) 17:49:54 437.485
CUTE-I 24 Nov 17:50:57 17:56:07 48° 260° (W) 18:01:20 437.470
STARS 24 Nov 17:51:54 17:56:19 87° 110° (ESE) 18:00:40 437.465
KAITUO 1B 24 Nov 17:52:52 17:56:14 34° 263° (W) 17:59:39 145.475/437.950
ZACube-1 24 Nov 17:53:07 17:54:22 11° 63° (ENE) 17:55:36 437.345
UWE-3 24 Nov 18:08:47 18:12:40 31° 70° (ENE) 18:16:28 435.000/436.395/437.385
XW-2D 24 Nov 18:20:10 18:21:45 12° 269° (W) 18:23:20 145.860 - 145.880
nSIGHT-1 24 Nov 18:20:17 18:22:47 21° 134° (SE) 18:25:18 .
HO-68 24 Nov 18:26:55 18:34:03 64° 257° (WSW) 18:41:14 435.675
NUDT-PHONESAT 24 Nov 18:32:33 18:34:10 13° 269° (W) 18:35:49 437.300
AO-73 24 Nov 18:38:50 18:42:33 30° 70° (ENE) 18:46:13 145.935
XW-2A 24 Nov 18:50:38 18:53:57 89° 68° (ENE) 18:57:17 145.665 - 145.685
Oscar 11 24 Nov 18:50:46 18:54:26 28° 69° (ENE) 18:58:05 .
CUTE 1.7 + AOD 2 24 Nov 18:55:49 18:59:18 25° 265° (W) 19:02:49 437.475
CUBEBUG 2 24 Nov 18:56:14 19:00:34 44° 261° (W) 19:04:49 437.445
NO-84 24 Nov 18:56:36 18:59:47 20° 23° (NNE) 19:03:00 435.350 FM
STRAND 1 24 Nov 19:06:07 19:11:07 53° 100° (E) 19:16:05 437.568
AAUSAT CUBESAT 2 24 Nov 19:12:06 19:16:11 62° 259° (W) 19:20:19 437.432
ISS 24 Nov 19:16:23 19:19:37 62° 141° (SE) 19:22:52 437.550
SEEDS 24 Nov 19:18:36 19:21:56 23° 266° (W) 19:25:18 437.485
ZACube-1 24 Nov 19:25:49 19:30:05 70° 259° (WSW) 19:34:18 437.345
SO-50 24 Nov 19:30:20 19:33:13 17° 110° (ESE) 19:36:07 436.795
RS-15 24 Nov 19:32:39 19:44:33 51° 315° (NW) 19:56:22 29.354- 29.394
UWE-3 24 Nov 19:45:37 19:49:08 23° 265° (W) 19:52:35 435.000/436.395/437.385
nSIGHT-1 24 Nov 19:55:43 19:58:49 45° 330° (NNW) 20:01:56 .
FO-29 24 Nov 20:12:18 20:20:03 62° 100° (E) 20:27:11 435.910
AO-73 24 Nov 20:15:25 20:18:47 22° 265° (W) 20:22:07 145.935
Oscar 11 24 Nov 20:26:56 20:30:30 25° 265° (W) 20:34:06 .
NO-84 24 Nov 20:33:26 20:37:41 80° 41° (NE) 20:41:56 435.350 FM
DELFI C3 24 Nov 20:39:54 20:43:52 86° 257° (WSW) 20:47:53 145.870
EO-88 24 Nov 20:43:54 20:47:23 47° 74° (ENE) 20:50:53 145.990 - 145.960
STRAND 1 24 Nov 20:46:16 20:49:53 20° 297° (WNW) 20:53:28 437.568
ISS 24 Nov 20:53:35 20:56:18 24° 339° (NNW) 20:59:02 437.550
Max Valier Satellite 24 Nov 20:54:58 20:58:37 81° 260° (W) 21:02:17 145.860
SO-50 24 Nov 21:08:52 21:13:14 52° 307° (NW) 21:17:39 436.795
O/OREOS (USA 219) 24 Nov 21:17:05 21:20:49 24° 57° (ENE) 21:24:29 437.305
PRISM 24 Nov 21:18:03 21:19:56 13° 91° (E) 21:21:49 437.425
UNISAT 6 24 Nov 21:32:22 21:36:36 61° 100° (E) 21:40:49 437.425
nSIGHT-1 24 Nov 21:33:37 21:35:39 15° 349° (N) 21:37:42 .
TIGRISAT 24 Nov 21:35:35 21:39:48 60° 101° (E) 21:43:59 435.000
RS-15 24 Nov 21:51:28 22:00:56 25° 347° (NNW) 22:10:13 29.354- 29.394
FO-29 24 Nov 21:57:58 22:04:28 30° 299° (WNW) 22:10:39 435.910
NO-84 24 Nov 22:12:07 22:14:33 15° 237° (WSW) 22:16:57 435.350 FM
ESTCUBE 1 24 Nov 22:15:22 22:19:45 59° 74° (ENE) 22:24:11 437.505/2401.250
EO-88 24 Nov 22:20:38 22:21:17 10° 270° (W) 22:21:55 145.990 - 145.960
VELOX 1 24 Nov 22:20:54 22:22:17 11° 61° (ENE) 22:23:40 145.980
LO-87 24 Nov 22:28:15 22:31:49 65° 258° (WSW) 22:35:24 145.935 - 145.965
ISS 24 Nov 22:31:50 22:33:39 14° 359° (N) 22:35:30 437.550
SPROUT 24 Nov 22:43:33 22:47:12 28° 69° (ENE) 22:50:51 437.525
AIST 2D 24 Nov 22:46:01 22:49:23 41° 98° (E) 22:52:46 435.315
QB50P2 24 Nov 22:46:24 22:48:58 16° 92° (E) 22:51:30 145.880/145.840
PRISM 24 Nov 22:51:26 22:55:30 52° 287° (WNW) 22:59:30 437.425
PCSat 24 Nov 22:52:29 22:57:45 56° 114° (ESE) 23:03:03 145.827
O/OREOS (USA 219) 24 Nov 22:56:10 23:00:16 34° 255° (WSW) 23:04:19 437.305
nSIGHT-1 24 Nov 23:10:51 23:12:51 15° 10° (N) 23:14:51 .
UNISAT 6 24 Nov 23:10:56 23:12:48 13° 297° (WNW) 23:14:39 437.425
TIGRISAT 24 Nov 23:14:05 23:15:58 13° 297° (WNW) 23:17:52 435.000
DUCHIFAT 1 24 Nov 23:28:14 23:31:57 31° 97° (E) 23:35:39 145.980
EO-79 24 Nov 23:40:36 23:44:44 58° 101° (E) 23:48:51 145.935-145.965
NANOSAT C BR1 24 Nov 23:41:00 23:45:05 51° 100° (E) 23:49:08 145.865
VELOX 1 24 Nov 23:53:38 23:58:04 78° 258° (WSW) 00:02:33 145.980
ESTCUBE 1 24 Nov 23:54:50 23:56:55 13° 270° (W) 23:59:01 437.505/2401.250
POLYITAN 1 24 Nov 23:57:05 00:01:17 90° 117° (ESE) 00:05:28 437.675
BUGSAT 1 25 Nov 00:04:43 00:07:33 18° 94° (E) 00:10:21 437.445
ISS 25 Nov 00:08:21 00:11:01 22° 20° (NNE) 00:13:40 437.550
RS-15 25 Nov 00:08:59 00:18:58 28° 23° (NNE) 00:28:30 29.354- 29.394
SPROUT 25 Nov 00:19:29 00:23:02 25° 265° (W) 00:26:35 437.525
AIST 2D 25 Nov 00:20:43 00:22:11 12° 294° (WNW) 00:23:37 435.315
QB50P2 25 Nov 00:20:57 00:24:57 43° 288° (WNW) 00:28:54 145.880/145.840
Oscar 19 25 Nov 00:23:43 00:27:23 19° 93° (E) 00:31:01 437.125/150
DX 1 25 Nov 00:25:47 00:30:02 53° 73° (ENE) 00:34:20 434.975-435.025
50 SAT 25 Nov 00:34:19 00:37:31 75° 75° (ENE) 00:40:45 437.505
PCSat 25 Nov 00:37:06 00:41:29 24° 313° (NW) 00:45:53 145.827
nSIGHT-1 25 Nov 00:46:37 00:49:43 42° 30° (NNE) 00:52:46 .
BEESAT 3 25 Nov 00:57:33 01:01:14 38° 116° (ESE) 01:04:58 437.485
UKube-1 25 Nov 00:58:43 01:03:02 77° 74° (ENE) 01:07:22 .
DUCHIFAT 1 25 Nov 01:04:13 01:07:25 22° 293° (WNW) 01:10:37 145.980
EO-79 25 Nov 01:18:04 01:19:59 13° 297° (WNW) 01:21:55 145.935-145.965
NANOSAT C BR1 25 Nov 01:18:05 01:20:21 14° 296° (WNW) 01:22:35 145.865
Gurwin Techsat 1B 25 Nov 01:21:52 01:27:01 48° 99° (E) 01:32:09 435.225
AO-91 25 Nov 01:30:19 01:34:45 86° 99° (E) 01:38:41 145.960
BUGSAT 1 25 Nov 01:39:21 01:42:59 33° 290° (WNW) 01:46:35 437.445
MOZHAYETS 4 25 Nov 01:40:10 01:44:21 37° 71° (ENE) 01:48:34
ISS 25 Nov 01:44:30 01:47:46 70° 218° (SW) 01:51:00 437.550
BEESAT 25 Nov 01:55:32 02:00:02 43° 70° (ENE) 02:04:32 436.000
Oscar 19 25 Nov 02:01:58 02:06:58 52° 289° (WNW) 02:11:59 437.125/150
DX 1 25 Nov 02:04:14 02:06:32 14° 269° (W) 02:08:49 434.975-435.025
CUBESAT XI-V 25 Nov 02:04:39 02:07:32 17° 64° (ENE) 02:10:26 437.345
ITUPSAT 1 25 Nov 02:08:00 02:12:40 57° 73° (ENE) 02:17:22 437.325
BEESAT 2 25 Nov 02:19:03 02:23:04 84° 119° (ESE) 02:27:08 435.950
M-CUBED/EXP-1 PRIME 25 Nov 02:19:55 02:24:07 34° 102° (ESE) 02:28:20 437.505
RS-15 25 Nov 02:22:15 02:34:10 69° 52° (NE) 02:45:22 29.354- 29.394
nSIGHT-1 25 Nov 02:23:12 02:25:45 22° 226° (SW) 02:28:17 .
AO-85 25 Nov 02:25:39 02:29:06 31° 115° (ESE) 02:32:40 145.980
ITAMSAT 1 25 Nov 02:26:03 02:29:04 15° 91° (E) 02:32:04 435.822/435.867
BEESAT 3 25 Nov 02:35:44 02:38:53 22° 314° (NW) 02:42:03 437.485
AO-7 25 Nov 02:53:41 03:01:39 46° 100° (E) 03:09:33 .
KKS-1 25 Nov 03:02:20 03:04:58 15° 63° (ENE) 03:07:35 437.445
Gurwin Techsat 1B 25 Nov 03:02:33 03:06:37 23° 297° (WNW) 03:10:40 435.225
MOZHAYETS 4 25 Nov 03:18:10 03:21:37 21° 266° (W) 03:25:05
BEESAT 25 Nov 03:34:30 03:37:59 20° 267° (W) 03:41:28 436.000
CUBESAT XI-V 25 Nov 03:39:59 03:44:27 53° 260° (W) 03:48:59 437.345
ITUPSAT 1 25 Nov 03:48:04 03:50:50 15° 268° (W) 03:53:37 437.325
M-CUBED/EXP-1 PRIME 25 Nov 03:54:27 03:58:19 27° 297° (WNW) 04:02:13 437.505
BEESAT 2 25 Nov 03:59:24 04:01:20 13° 320° (NW) 04:03:18 435.950
SO-50 25 Nov 03:59:57 04:03:27 21° 43° (NE) 04:06:59 436.795
YUBILEINY 25 Nov 04:01:10 04:08:56 37° 85° (E) 04:16:43 435.215
ITAMSAT 1 25 Nov 04:03:49 04:08:59 65° 287° (WNW) 04:14:05 435.822/435.867
AO-85 25 Nov 04:06:16 04:09:30 24° 314° (NW) 04:12:53 145.980
DOVE 4 25 Nov 04:32:37 04:37:34 49° 98° (E) 04:42:14 437.250
RS-15 25 Nov 04:35:41 04:45:40 35° 255° (WSW) 04:55:16 29.354- 29.394
KKS-1 25 Nov 04:36:39 04:41:02 55° 259° (W) 04:45:28 437.445
AO-7 25 Nov 04:46:37 04:54:18 43° 299° (WNW) 05:02:00 .
STRAND 1 25 Nov 04:48:00 04:48:45 10° 57° (ENE) 04:49:30 437.568
STARS 25 Nov 04:48:01 04:52:27 78° 75° (ENE) 04:56:53 437.465
XW-2C 25 Nov 04:57:52 04:59:59 14° 92° (E) 05:02:06 145.795 - 145.815
XW-2F 25 Nov 05:04:07 05:06:29 16° 93° (E) 05:08:50 145.980 - 146.000
LilacSat-2 25 Nov 05:04:56 05:07:43 19° 94° (E) 05:10:30 437.200
KAITUO 1B 25 Nov 05:23:43 05:26:37 21° 94° (E) 05:29:30 145.475/437.950
SO-50 25 Nov 05:39:40 05:44:15 58° 241° (WSW) 05:48:52 436.795
XW-2D 25 Nov 05:49:38 05:53:26 64° 100° (E) 05:57:14 145.860 - 145.880
HO-68 25 Nov 05:55:11 06:00:57 25° 93° (E) 06:06:39 435.675
YUBILEINY 25 Nov 05:57:03 06:05:27 49° 285° (WNW) 06:13:57 435.215
NUDT-PHONESAT 25 Nov 05:59:47 06:03:27 55° 100° (E) 06:07:07 437.300
XW-2B 25 Nov 06:04:38 06:08:27 85° 287° (WNW) 06:12:17 145.730 - 145.750
CUTE-I 25 Nov 06:07:32 06:12:54 67° 102° (ESE) 06:18:12 437.470
DOVE 4 25 Nov 06:11:06 06:14:48 20° 296° (WNW) 06:18:22 437.250
STRAND 1 25 Nov 06:21:54 06:27:02 77° 74° (ENE) 06:32:12 437.568
FO-29 25 Nov 06:24:19 06:30:11 30° 61° (ENE) 06:36:29 435.910
XW-2C 25 Nov 06:30:45 06:34:19 39° 287° (WNW) 06:37:53 145.795 - 145.815
XW-2F 25 Nov 06:37:12 06:40:41 35° 288° (WNW) 06:44:10 145.980 - 146.000
LilacSat-2 25 Nov 06:38:38 06:42:00 30° 289° (WNW) 06:45:24 437.200
CUTE 1.7 + AOD 2 25 Nov 06:39:24 06:43:36 52° 99° (E) 06:47:47 437.475
CUBEBUG 2 25 Nov 06:46:44 06:50:33 34° 97° (E) 06:54:20 437.445
AAUSAT CUBESAT 2 25 Nov 06:54:31 06:57:37 20° 93° (E) 07:00:41 437.432
KAITUO 1B 25 Nov 06:57:22 07:00:32 26° 290° (WNW) 07:03:44 145.475/437.950
SEEDS 25 Nov 07:00:55 07:05:07 55° 100° (E) 07:09:17 437.485
ZACube-1 25 Nov 07:14:19 07:17:28 21° 94° (E) 07:20:38 437.345
UWE-3 25 Nov 07:33:41 07:37:49 67° 101° (E) 07:41:58 435.000/436.395/437.385
NUDT-PHONESAT 25 Nov 07:35:54 07:36:48 11° 296° (WNW) 07:37:43 437.300
PCSat 25 Nov 07:40:08 07:45:22 46° 54° (NE) 07:50:34 145.827
HO-68 25 Nov 07:42:02 07:49:06 62° 291° (WNW) 07:56:07 435.675
XW-2A 25 Nov 07:44:14 07:47:36 88° 290° (WNW) 07:51:00 145.665 - 145.685
CUTE-I 25 Nov 07:48:58 07:52:22 17° 299° (WNW) 07:55:44 437.470
FALCONSAT 3 25 Nov 07:51:12 07:54:02 21° 164° (SSE) 07:56:52 435.103
AO-73 25 Nov 08:01:42 08:05:51 63° 101° (ESE) 08:10:00 145.935
STRAND 1 25 Nov 08:04:37 08:06:45 12° 271° (W) 08:08:54 437.568
FO-29 25 Nov 08:07:57 08:14:38 59° 261° (W) 08:22:07 435.910
PRISM 25 Nov 08:08:59 08:09:31 10° 61° (ENE) 08:10:04 437.425
Oscar 11 25 Nov 08:12:53 08:17:09 56° 100° (E) 08:21:25 .
CUTE 1.7 + AOD 2 25 Nov 08:16:36 08:18:59 15° 296° (WNW) 08:21:21 437.475
DELFI C3 25 Nov 08:18:27 08:19:54 12° 90° (E) 08:21:21 145.870
CUBEBUG 2 25 Nov 08:23:59 08:26:56 19° 293° (WNW) 08:29:53 437.445
AAUSAT CUBESAT 2 25 Nov 08:29:20 08:33:07 34° 289° (WNW) 08:36:53 437.432
UNISAT 6 25 Nov 08:30:47 08:35:12 54° 73° (ENE) 08:39:32 437.425
TIGRISAT 25 Nov 08:33:50 08:38:14 53° 73° (ENE) 08:42:33 435.000
SEEDS 25 Nov 08:38:08 08:40:19 14° 296° (WNW) 08:42:29 437.485
ZACube-1 25 Nov 08:50:06 08:53:47 32° 290° (WNW) 08:57:31 437.345
UWE-3 25 Nov 09:12:37 09:13:43 11° 298° (WNW) 09:14:48 435.000/436.395/437.385
BEESAT 3 25 Nov 09:14:00 09:17:19 25° 47° (NE) 09:20:34 437.485
AIST 2D 25 Nov 09:21:07 09:23:16 16° 67° (ENE) 09:25:26 435.315
PCSat 25 Nov 09:24:06 09:28:28 26° 252° (WSW) 09:32:51 145.827
FALCONSAT 3 25 Nov 09:29:20 09:32:39 31° 179° (S) 09:35:57 435.103
HO-68 25 Nov 09:32:42 09:35:23 12° 311° (NW) 09:38:04 435.675
QB50P2 25 Nov 09:39:50 09:41:50 13° 63° (ENE) 09:43:49 145.880/145.840
PRISM 25 Nov 09:40:01 09:44:09 76° 257° (WSW) 09:48:19 437.425
AO-73 25 Nov 09:40:03 09:41:33 12° 297° (WNW) 09:43:03 145.935
EO-88 25 Nov 09:45:23 09:49:01 62° 101° (E) 09:52:39 145.990 - 145.960
Oscar 11 25 Nov 09:50:31 09:52:49 14° 296° (WNW) 09:55:07 .
DELFI C3 25 Nov 09:51:03 09:54:57 52° 286° (WNW) 09:58:48 145.870
Max Valier Satellite 25 Nov 09:58:06 10:01:43 58° 285° (WNW) 10:05:21 145.860
ESTCUBE 1 25 Nov 10:09:27 10:11:22 12° 90° (E) 10:13:16 437.505/2401.250
UNISAT 6 25 Nov 10:09:44 10:12:10 14° 269° (W) 10:14:37 437.425
TIGRISAT 25 Nov 10:12:42 10:15:11 15° 268° (W) 10:17:40 435.000
DUCHIFAT 1 25 Nov 10:20:07 10:23:30 24° 68° (ENE) 10:26:53 145.980
EO-79 25 Nov 10:32:42 10:36:43 43° 72° (ENE) 10:40:44 145.935-145.965
NANOSAT C BR1 25 Nov 10:32:51 10:36:44 38° 71° (ENE) 10:40:38 145.865
BEESAT 2 25 Nov 10:36:27 10:40:23 49° 54° (NE) 10:44:15 435.950
POLYITAN 1 25 Nov 10:49:10 10:53:22 66° 74° (ENE) 10:57:34 437.675
BEESAT 3 25 Nov 10:51:22 10:54:51 30° 245° (WSW) 10:58:15 437.485
AIST 2D 25 Nov 10:53:08 10:56:11 29° 263° (W) 10:59:16 435.315
AO-91 25 Nov 10:54:04 10:55:11 11° 59° (ENE) 10:56:17 145.960
BUGSAT 1 25 Nov 10:55:02 10:57:22 15° 64° (ENE) 10:59:41 437.445
AO-85 25 Nov 10:55:17 10:59:37 36° 50° (NE) 11:04:12 145.980
Gurwin Techsat 1B 25 Nov 11:07:48 11:09:14 11° 57° (ENE) 11:10:39 435.225
FALCONSAT 3 25 Nov 11:08:19 11:11:16 23° 195° (SSW) 11:14:12 435.103
QB50P2 25 Nov 11:12:56 11:17:07 58° 259° (W) 11:21:18 145.880/145.840
LO-87 25 Nov 11:28:00 11:31:27 51° 285° (WNW) 11:34:52 145.935 - 145.965
O/OREOS (USA 219) 25 Nov 11:29:33 11:33:21 26° 103° (ESE) 11:37:10 437.305
Oscar 19 25 Nov 11:40:30 11:44:51 29° 66° (ENE) 11:49:13 437.125/150
ESTCUBE 1 25 Nov 11:44:03 11:48:34 63° 286° (WNW) 11:53:03 437.505/2401.250
VELOX 1 25 Nov 11:44:12 11:47:26 19° 93° (E) 11:50:38 145.980
